Content
SEND FEEDBACK

Daily
Averages
Monthly
Summary
United States of America

ELSMERE, NEBRASKA


Home > North America > United States > Nebraska
Elevation: 2876 feet     Latitude: 42 17N     Longitude: 100 37W

WEATHER
 
SELECT A DAY
Number of Records: 250,288;   Date Range: 6/10/04 - 7/26/14
 
SHARE

PRINT THIS DATA

[ ← Previous Day ]
WEATHER ALMANAC - JANUARY 23, 2013
[ Next Day → ]
[ °C ]   °F
Weather ElementAverageHighLow
Temperature20.8 °F28.4 °F (12:55 pm)11.1 °F (11:35 pm)
Dewpoint13.3 °F18.3 °F (9:35 am)5.9 °F (11:35 pm)
Humidity73.5 %89 % (1:15 am)58 % (2:35 pm)
Barometer30.21 in30.34 in (10:15 pm)30.07 in (4:35 am)
Wind Speed6.4 mph13.8 mph (1:55 pm)
Wind Gust18.4 mph (1:55 pm)
Weather ElementAverage
Visibility10 mi
Wind DirectionE (93.9 °)

Weather ElementTotal
Precipitation---
Heating Degree Days45.3 (Base 65)
Averaged from 71 records on January 23, 2013
WEATHER CONDITIONS BREAKOUT
WIND DIRECTION BREAKOUT
WEATHER BY HOUR - JANUARY 23, 2013
[ °C ]   °F
Local TimeTemperatureDewpointHumidityBarometerVisibilityWind DirectionWind SpeedGust SpeedPrecipitationEventsConditions
12:35 AM18.9 °F15.8 °F88 %30.10 in10.0 miCalmClear
12:55 AM19.9 °F16.3 °F86 %30.09 in10.0 miCalmClear
1:15 AM19.0 °F16.3 °F89 %30.09 in7.0 miWest (270°)3.5 mphClear
1:35 AM19.8 °F16.9 °F89 %30.09 in10.0 miWest (270°)3.5 mphClear
1:55 AM18.0 °F14.9 °F88 %30.09 in10.0 miWest (260°)3.5 mphClear
2:15 AM19.0 °F15.6 °F87 %30.09 in10.0 miWSW (240°)9.2 mphClear
2:35 AM18.7 °F15.3 °F87 %30.09 in10.0 miWSW (250°)6.9 mphClear
2:55 AM19.2 °F15.1 °F84 %30.10 in10.0 miWest (270°)3.5 mphClear
3:15 AM17.6 °F14.4 °F87 %30.10 in10.0 miWest (260°)3.5 mphClear
3:35 AM19.2 °F15.4 °F85 %30.10 in10.0 miWSW (240°)3.5 mphClear
3:55 AM18.3 °F14.0 °F83 %30.09 in10.0 miCalmClear
4:15 AM17.2 °F13.8 °F86 %30.08 in10.0 miWest (270°)3.5 mphClear
4:35 AM18.3 °F14.2 °F84 %30.07 in10.0 miWSW (240°)5.8 mphClear
4:55 AM18.7 °F14.2 °F83 %30.08 in10.0 miCalmClear
5:15 AM16.7 °F12.6 °F84 %30.09 in10.0 miCalmClear
5:35 AM17.1 °F12.9 °F84 %30.10 in10.0 miWest (260°)4.6 mphClear
5:55 AM17.4 °F13.3 °F84 %30.09 in10.0 miCalmClear
6:15 AM15.8 °F12.4 °F86 %30.10 in10.0 miCalmClear
6:35 AM18.1 °F14.7 °F86 %30.10 in10.0 miCalmClear
6:55 AM18.3 °F14.0 °F83 %30.12 in10.0 miCalmClear
7:15 AM18.1 °F14.2 °F84 %30.12 in10.0 miCalmClear
7:35 AM18.3 °F13.8 °F83 %30.12 in10.0 miCalmClear
7:55 AM19.8 °F14.7 °F81 %30.14 in10.0 miNorth (360°)3.5 mphClear
8:15 AM20.8 °F15.8 °F81 %30.14 in10.0 miCalmClear
8:35 AM22.6 °F17.1 °F79 %30.14 in10.0 miNorth (10°)3.5 mphClear
8:55 AM22.3 °F16.9 °F80 %30.15 in10.0 miNorth (10°)3.5 mphClear
9:15 AM23.0 °F17.4 °F79 %30.16 in10.0 miNNE (20°)5.8 mphClear
9:35 AM23.5 °F18.3 °F80 %30.18 in10.0 miNorth (360°)8.1 mphClear
9:55 AM23.5 °F17.8 °F79 %30.19 in10.0 miNNE (20°)8.1 mphClear
10:15 AM24.1 °F18.1 °F78 %30.20 in10.0 miNorth (360°)9.2 mphClear
10:35 AM24.4 °F18.1 °F77 %30.22 in10.0 miNorth (360°)8.1 mphClear
10:55 AM25.5 °F17.8 °F72 %30.22 in10.0 miNorth (10°)9.2 mphClear
11:15 AM26.4 °F17.6 °F69 %30.22 in10.0 miNNE (30°)9.2 mphClear
11:35 AM27.0 °F17.4 °F67 %30.23 in10.0 miNNE (30°)11.5 mphClear
11:55 AM28.2 °F17.6 °F64 %30.25 in10.0 miNorth (360°)10.4 mphClear
12:15 PM27.5 °F16.9 °F64 %30.24 in10.0 miNNE (20°)12.7 mphClear
12:35 PM28.0 °F16.7 °F62 %30.23 in10.0 miNNE (20°)10.4 mphClear
12:55 PM28.4 °F16.5 °F61 %30.22 in10.0 miNNE (30°)12.7 mphClear
1:15 PM28.4 °F16.2 °F60 %30.23 in10.0 miNNE (20°)12.7 mphClear
1:35 PM28.4 °F16.0 °F60 %30.22 in10.0 miNNE (20°)11.5 mphClear
1:55 PM27.1 °F15.1 °F60 %30.24 in10.0 miNNE (20°)13.8 mph18.4 mphClear
2:15 PM27.1 °F14.7 °F60 %30.25 in10.0 miNNE (30°)10.4 mphClear
2:35 PM27.5 °F14.5 °F58 %30.23 in10.0 miNNE (30°)9.2 mph16.1 mphClear
2:55 PM27.3 °F14.2 °F58 %30.24 in10.0 miNNE (20°)8.1 mphClear
3:15 PM26.4 °F13.8 °F59 %30.25 in10.0 miNNE (30°)8.1 mphClear
3:35 PM26.2 °F13.5 °F59 %30.25 in10.0 miNNE (30°)6.9 mphClear
3:55 PM25.9 °F13.1 °F58 %30.26 in10.0 miNNE (20°)10.4 mphClear
4:15 PM25.2 °F12.4 °F58 %30.26 in10.0 miNNE (30°)10.4 mphClear
4:35 PM24.8 °F12.4 °F59 %30.26 in10.0 miNNE (30°)12.7 mphClear
4:55 PM23.9 °F11.3 °F59 %30.28 in10.0 miNE (40°)11.5 mphClear
5:15 PM23.0 °F11.3 °F61 %30.27 in10.0 miNE (40°)8.1 mphClear
5:35 PM22.5 °F10.9 °F61 %30.27 in10.0 miNE (50°)9.2 mphClear
5:55 PM21.9 °F10.9 °F63 %30.28 in10.0 miNE (50°)10.4 mphClear
6:15 PM21.0 °F10.6 °F64 %30.29 in10.0 miNE (40°)6.9 mphClear
6:35 PM20.7 °F10.4 °F65 %30.30 in10.0 miNE (40°)9.2 mphClear
6:55 PM19.9 °F9.9 °F65 %30.30 in10.0 miENE (60°)8.1 mphClear
7:15 PM19.2 °F9.1 °F65 %30.31 in10.0 miENE (60°)8.1 mphClear
7:35 PM18.5 °F9.1 °F67 %30.32 in10.0 miENE (70°)8.1 mphClear
7:55 PM18.1 °F9.0 °F67 %30.31 in10.0 miENE (70°)6.9 mphClear
8:15 PM17.6 °F8.6 °F68 %30.32 in10.0 miENE (60°)10.4 mphClear
8:35 PM17.4 °F8.4 °F68 %30.33 in10.0 miENE (60°)8.1 mphClear
8:55 PM17.1 °F8.4 °F69 %30.32 in10.0 miENE (70°)5.8 mphClear
9:15 PM16.7 °F8.4 °F70 %30.32 in10.0 miENE (70°)6.9 mphClear
9:35 PM16.0 °F7.7 °F70 %30.33 in10.0 miEast (90°)6.9 mphClear
9:55 PM15.1 °F7.3 °F71 %30.33 in10.0 miEast (80°)8.1 mphClear
10:15 PM14.2 °F6.8 °F73 %30.34 in10.0 miEast (80°)6.9 mphClear
10:35 PM13.5 °F6.8 °F75 %30.33 in10.0 miEast (90°)6.9 mphClear
10:55 PM12.6 °F6.8 °F78 %30.33 in10.0 miEast (90°)5.8 mphClear
11:15 PM12.0 °F6.4 °F78 %30.33 in10.0 miEast (100°)4.6 mphClear
11:35 PM11.1 °F5.9 °F80 %30.34 in10.0 miESE (120°)3.5 mphClear
11:55 PM11.3 °F6.4 °F81 %30.34 in10.0 miSE (130°)3.5 mphClear
Hourly data recorded from KTIF, located miles away from Elsmere, Nebraska







STORIES FROM OUR PARTNERS